map of WMH home
Great Circle Mapper logo
WMH - Airport
Location
City:  Mountain Home, Arkansas, United States
Name:Baxter County Airport
ICAO / IATA:KBPK / WMH
FAA:BPK

Details
Type:Airport (Airfield)
Use:Public/Civil
Latitude:3622'08"N (36.368942)
Longitude:9228'14"W (-92.470527)
Datum:WGS 1984
Elevation:928 ft (283 m)
Runways:1
Longest:5001 × 75 ft (1524 × 23 m), paved

Time
Time Zone:UTC-6 (DST-5)
Local Time:

Weather
METAR:KBPK 202153Z AUTO 24004KT 8SM FEW049 21/14 A3000 RMK AO2 SLP154 T02060139
TAF:KBPK 201722Z 2018/2118 25005KT P6SM VCSH SCT035 BKN060
FM202000 30004KT P6SM SCT035 BKN060
FM210100 VRB03KT P6SM SCT060 SCT250
TEMPO 2108/2111 4SM BR
FM211100 VRB02KT 3/4SM BR BKN005
FM211400 VRB03KT P6SM SKC

Related Locations
Nearby:
Farthest:MGV: 10879 mi / 17508 km
Margaret River, WA, AU

Find:

   beyond  
but within

Other Information
Maps:
NOTAMs:
Links:
Sources:

  
flag of United States
flag of Arkansas
  

Sectional Chart

Flight Planning
at skyvector.com

Satellite Image

Google Maps Satellite View

 

Copyright © 2004-2014 Karl L. Swartz. All rights reserved.
The Great Circle Mapper name and logo are trademarks of the Great Circle Mapper.
All other trademarks mentioned herein belong to their respective owners.
Please see credits for attibutions and further copyright information.

  Follow gcmap on Facebook Follow gcmap on Twitter

hCard Microformat

Geo Microformat